| time (UTC) | temp F | wind direction | speed MPH | gust MPH | rain 1hr in | rain 24hr in | rain mn in | humidity % | barometer mb |
| 20260506234553 | 70 | 213 | 4.0 | 14.0 | 0.00 | 0.00 | 0.00 | 62 | 1015.7 |
| 20260506233057 | 70 | 208 | 5.0 | 12.0 | 0.00 | 0.00 | 0.00 | 62 | 1015.7 |
| 20260506231601 | 70 | 127 | 5.0 | 12.0 | 0.00 | 0.00 | 0.00 | 61 | 1015.7 |
| 20260506230056 | 70 | 147 | 7.0 | 14.0 | 0.00 | 0.00 | 0.00 | 62 | 1015.7 |
| 20260506224554 | 70 | 205 | 6.0 | 13.0 | 0.00 | 0.00 | 0.00 | 61 | 1015.8 |
| 20260506223053 | 70 | 153 | 6.0 | 13.0 | 0.00 | 0.00 | 0.00 | 62 | 1016.0 |
| 20260506221555 | 69 | 116 | 7.0 | 15.0 | 0.00 | 0.00 | 0.00 | 64 | 1016.0 |
| 20260506220053 | 69 | 131 | 7.0 | 16.0 | 0.00 | 0.00 | 0.00 | 64 | 1016.2 |
| 20260506214602 | 69 | 63 | 5.0 | 14.0 | 0.00 | 0.00 | 0.00 | 64 | 1016.4 |
| 20260506213056 | 69 | 225 | 5.0 | 15.0 | 0.00 | 0.00 | 0.00 | 64 | 1016.6 |
| 20260506211604 | 69 | 223 | 7.0 | 15.0 | 0.00 | 0.00 | 0.00 | 63 | 1016.6 |
| 20260506210057 | 70 | 204 | 5.0 | 15.0 | 0.00 | 0.00 | 0.00 | 63 | 1016.8 |
| 20260506204600 | 69 | 165 | 6.0 | 13.0 | 0.00 | 0.00 | 0.00 | 63 | 1016.8 |
| 20260506203055 | 70 | 216 | 7.0 | 13.0 | 0.00 | 0.00 | 0.00 | 62 | 1016.8 |
| 20260506201551 | 69 | 171 | 7.0 | 16.0 | 0.00 | 0.00 | 0.00 | 62 | 1017.0 |
| 20260506200101 | 70 | 169 | 4.0 | 13.0 | 0.00 | 0.00 | 0.00 | 63 | 1017.2 |
| 20260506194602 | 69 | 161 | 5.0 | 14.0 | 0.00 | 0.00 | 0.00 | 63 | 1017.3 |
| 20260506193056 | 69 | 109 | 4.0 | 12.0 | 0.00 | 0.00 | 0.00 | 63 | 1017.4 |
| 20260506191605 | 69 | 178 | 4.0 | 12.0 | 0.00 | 0.00 | 0.00 | 61 | 1017.5 |
| 20260506190054 | 69 | 148 | 4.0 | 12.0 | 0.00 | 0.00 | 0.00 | 61 | 1017.5 |
| 20260506184554 | 69 | 171 | 4.0 | 11.0 | 0.00 | 0.00 | 0.00 | 58 | 1017.6 |
| 20260506183056 | 69 | 209 | 6.0 | 13.0 | 0.00 | 0.00 | 0.00 | 56 | 1017.8 |
| 20260506181559 | 68 | 221 | 3.0 | 9.0 | 0.00 | 0.00 | 0.00 | 59 | 1017.9 |
| 20260506180113 | 67 | 267 | 5.0 | 11.0 | 0.00 | 0.00 | 0.00 | 60 | 1018.1 |
| 20260506174553 | 66 | 235 | 4.0 | 9.0 | 0.00 | 0.01 | 0.00 | 61 | 1018.3 |
| 20260506173124 | 65 | 211 | 3.0 | 15.0 | 0.00 | 0.01 | 0.00 | 62 | 1018.4 |
| 20260506171603 | 65 | 217 | 3.0 | 9.0 | 0.00 | 0.01 | 0.00 | 62 | 1018.4 |
| 20260506170053 | 64 | 265 | 6.0 | 9.0 | 0.00 | 0.01 | 0.00 | 64 | 1018.4 |
| 20260506164551 | 64 | 245 | 5.0 | 10.0 | 0.00 | 0.01 | 0.00 | 65 | 1018.3 |
| 20260506163100 | 63 | 218 | 4.0 | 8.0 | 0.00 | 0.01 | 0.00 | 65 | 1018.2 |
| 20260506161557 | 63 | 151 | 2.0 | 8.0 | 0.00 | 0.01 | 0.00 | 69 | 1018.1 |
| 20260506160054 | 62 | 198 | 2.0 | 6.0 | 0.00 | 0.01 | 0.00 | 69 | 1018.3 |
| 20260506154552 | 62 | 216 | 2.0 | 8.0 | 0.00 | 0.01 | 0.00 | 70 | 1018.3 |
| 20260506153059 | 61 | 0 | 3.0 | 7.0 | 0.00 | 0.01 | 0.00 | 70 | 1018.4 |
| 20260506151558 | 61 | 279 | 2.0 | 7.0 | 0.00 | 0.01 | 0.00 | 72 | 1018.4 |
| 20260506150057 | 61 | 173 | 1.0 | 4.0 | 0.00 | 0.01 | 0.00 | 72 | 1018.4 |
| 20260506144606 | 59 | 0 | 0.0 | 3.0 | 0.00 | 0.02 | 0.00 | 76 | 1018.3 |
| 20260506143103 | 58 | 352 | 1.0 | 3.0 | 0.00 | 0.02 | 0.00 | 79 | 1018.3 |
| 20260506141557 | 56 | 360 | 0.0 | 2.0 | 0.00 | 0.02 | 0.00 | 81 | 1018.3 |
| 20260506140145 | 54 | 360 | 1.0 | 2.0 | 0.00 | 0.02 | 0.00 | 86 | 1018.2 |
| 20260506134555 | 52 | 0 | 1.0 | 2.0 | 0.00 | 0.14 | 0.00 | 86 | 1018.1 |
| 20260506133101 | 52 | 360 | 1.0 | 2.0 | 0.00 | 0.14 | 0.00 | 86 | 1018.0 |
| 20260506131553 | 53 | 0 | 0.0 | 2.0 | 0.00 | 0.14 | 0.00 | 86 | 1017.9 |
| 20260506130057 | 53 | 360 | 0.0 | 2.0 | 0.00 | 0.14 | 0.00 | 86 | 1017.8 |
| 20260506124551 | 53 | 352 | 0.0 | 2.0 | 0.00 | 0.16 | 0.00 | 86 | 1017.6 |
| 20260506123054 | 52 | 360 | 0.0 | 3.0 | 0.00 | 0.16 | 0.00 | 86 | 1017.6 |
| 20260506121554 | 52 | 15 | 1.0 | 2.0 | 0.00 | 0.16 | 0.00 | 86 | 1017.5 |
| 20260506120053 | 52 | 15 | 1.0 | 3.0 | 0.00 | 0.16 | 0.00 | 86 | 1017.4 |
| 20260506114550 | 52 | 0 | 0.0 | 3.0 | 0.00 | 0.17 | 0.00 | 86 | 1017.4 |
| 20260506113059 | 52 | 350 | 1.0 | 3.0 | 0.00 | 0.17 | 0.00 | 86 | 1017.6 |
| 20260506111558 | 52 | 352 | 0.0 | 3.0 | 0.00 | 0.17 | 0.00 | 85 | 1017.5 |
| 20260506110054 | 52 | 340 | 1.0 | 3.0 | 0.00 | 0.17 | 0.00 | 85 | 1017.5 |
| 20260506104558 | 52 | 360 | 1.0 | 3.0 | 0.00 | 0.17 | 0.00 | 85 | 1017.5 |
| 20260506103051 | 52 | 0 | 0.0 | 2.0 | 0.00 | 0.17 | 0.00 | 86 | 1017.4 |
| 20260506101556 | 52 | 352 | 0.0 | 2.0 | 0.00 | 0.17 | 0.00 | 86 | 1017.3 |
| 20260506100105 | 52 | 352 | 0.0 | 3.0 | 0.00 | 0.17 | 0.00 | 85 | 1017.3 |
| 20260506094608 | 52 | 338 | 1.0 | 2.0 | 0.00 | 0.17 | 0.00 | 85 | 1017.2 |
| 20260506093052 | 52 | 0 | 1.0 | 2.0 | 0.00 | 0.17 | 0.00 | 86 | 1017.2 |
| 20260506091553 | 52 | 352 | 0.0 | 2.0 | 0.00 | 0.17 | 0.00 | 85 | 1017.3 |
| 20260506090054 | 53 | 352 | 0.0 | 1.0 | 0.00 | 0.17 | 0.00 | 83 | 1017.4 |
| 20260506084557 | 53 | 0 | 0.0 | 2.0 | 0.00 | 0.18 | 0.00 | 83 | 1017.6 |
| 20260506083100 | 54 | 360 | 0.0 | 2.0 | 0.00 | 0.18 | 0.00 | 82 | 1017.7 |
| 20260506081554 | 54 | 0 | 0.0 | 1.0 | 0.00 | 0.18 | 0.00 | 81 | 1017.8 |
| 20260506080107 | 55 | 0 | 0.0 | 2.0 | 0.00 | 0.18 | 0.00 | 81 | 1018.0 |
| 20260506073118 | 55 | 0 | 0.0 | 2.0 | 0.00 | 0.25 | 0.00 | 81 | 1018.0 |
| 20260506071600 | 55 | 0 | 0.0 | 1.0 | 0.00 | 0.25 | 0.00 | 81 | 1018.1 |
| 20260506061604 | 56 | 0 | 1.0 | 3.0 | 0.00 | 0.25 | 0.25 | 79 | 1017.7 |
| 20260506044552 | 58 | 206 | 0.0 | 4.0 | 0.00 | 0.25 | 0.25 | 74 | 1017.4 |
| 20260506043053 | 58 | 188 | 1.0 | 4.0 | 0.00 | 0.25 | 0.25 | 74 | 1017.2 |
| 20260506041555 | 58 | 185 | 0.0 | 5.0 | 0.00 | 0.25 | 0.25 | 74 | 1017.1 |
| 20260506040050 | 58 | 196 | 0.0 | 6.0 | 0.00 | 0.25 | 0.25 | 74 | 1016.9 |
| 20260506034553 | 59 | 207 | 1.0 | 5.0 | 0.00 | 0.25 | 0.25 | 72 | 1016.7 |
| 20260506033105 | 59 | 170 | 2.0 | 5.0 | 0.00 | 0.25 | 0.25 | 74 | 1016.4 |
| 20260506031553 | 59 | 92 | 1.0 | 6.0 | 0.00 | 0.25 | 0.25 | 76 | 1016.2 |
| 20260506030059 | 59 | 99 | 2.0 | 6.0 | 0.00 | 0.25 | 0.25 | 75 | 1016.0 |
| 20260506024603 | 59 | 141 | 2.0 | 8.0 | 0.00 | 0.25 | 0.25 | 74 | 1015.8 |
| 20260506023054 | 60 | 96 | 2.0 | 9.0 | 0.00 | 0.25 | 0.25 | 72 | 1015.6 |
| 20260506021558 | 60 | 167 | 2.0 | 8.0 | 0.00 | 0.25 | 0.25 | 70 | 1015.4 |
| 20260506020051 | 61 | 123 | 4.0 | 10.0 | 0.00 | 0.25 | 0.25 | 67 | 1015.3 |
| 20260506014549 | 62 | 128 | 4.0 | 11.0 | 0.00 | 0.25 | 0.25 | 67 | 1015.2 |
| 20260506013052 | 63 | 111 | 5.0 | 11.0 | 0.00 | 0.25 | 0.25 | 65 | 1015.2 |
| 20260506011615 | 63 | 166 | 5.0 | 13.0 | 0.00 | 0.25 | 0.25 | 65 | 1015.2 |
| 20260506010059 | 63 | 156 | 3.0 | 12.0 | 0.00 | 0.25 | 0.25 | 62 | 1015.0 |
| 20260506004551 | 64 | 142 | 4.0 | 13.0 | 0.00 | 0.25 | 0.25 | 61 | 1015.0 |
| 20260506003051 | 65 | 155 | 5.0 | 13.0 | 0.00 | 0.25 | 0.25 | 61 | 1014.8 |
| 20260506001557 | 65 | 159 | 5.0 | 13.0 | 0.00 | 0.25 | 0.25 | 57 | 1014.7 |
| 20260506000058 | 65 | 159 | 4.0 | 12.0 | 0.00 | 0.25 | 0.25 | 56 | 1014.9 |